Content
SEND FEEDBACK

Daily
Averages
Monthly
Summary
United States of America

PUT IN BAY, OHIO


Home > North America > United States > Ohio
Elevation: 561 feet     Latitude: 41 39N     Longitude: 082 48W

WEATHER
 
SELECT A DAY
Number of Records: 124,267;   Date Range: 12/10/00 - 9/29/14
 
SHARE

PRINT THIS DATA

[ ← Previous Day ]
WEATHER ALMANAC - MAY 8, 2013
[ Next Day → ]
[ °C ]   °F
Weather ElementAverageHighLow
Temperature62.3 °F70.3 °F (2:00 pm)56.1 °F (6:00 am)
Dewpoint50 °F55.2 °F (7:00 pm)41.5 °F (4:00 am)
Humidity63.2 %86 % (11:00 pm)44 % (2:00 pm)
Barometer29.96 in29.99 in (8:00 am)29.93 in (5:00 pm)
Wind Speed4.3 mph8.1 mph (3:00 pm)
Weather ElementAverage
Wind DirectionESE (123.3 °)

Weather ElementTotal
Precipitation---
Heating Degree Days1.8 (Base 65)
Growing Degree Days13.2 (Base 50)
Averaged from 27 records on May 8, 2013
WEATHER CONDITIONS BREAKOUT
WIND DIRECTION BREAKOUT
WEATHER BY HOUR - MAY 8, 2013
[ °C ]   °F
Local TimeTemperatureDewpointHumidityBarometerVisibilityWind DirectionWind SpeedGust SpeedPrecipitationEventsConditions
1:00 AM58.6 °F47.1 °F66 %29.98 inNorth (360°)3.5 mph
2:00 AM58.0 °F47.0 °F57 %29.97 inNNE (20°)4.6 mph
2:00 AM57.7 °F46.8 °F67 %29.97 inNNE (20°)4.6 mph
3:00 AM57.6 °F44.8 °F62 %29.95 inNorth (10°)3.5 mph
4:00 AM57.2 °F41.5 °F56 %29.95 inNorth (10°)3.5 mph
5:00 AM57.2 °F42.8 °F59 %29.94 inNorth (360°)3.5 mph
6:00 AM56.1 °F43.9 °F64 %29.96 inNE (50°)4.6 mph
7:00 AM56.1 °F45.9 °F68 %29.96 inNNE (30°)3.5 mph
8:00 AM57.0 °F48.0 °F64 %29.99 inNE (40°)3.5 mph
8:00 AM56.8 °F48.0 °F72 %29.99 inNE (40°)3.5 mph
9:00 AM60.1 °F49.3 °F67 %29.99 inENE (60°)4.6 mph
10:00 AM62.2 °F50.2 °F65 %29.99 inNE (50°)3.5 mph
11:00 AM64.8 °F50.7 °F60 %29.99 inNNE (30°)3.5 mph
12:00 PM67.6 °F52.0 °F57 %29.99 inSSE (150°)5.8 mph
1:00 PM69.8 °F53.1 °F55 %29.97 inSSE (160°)6.9 mph
2:00 PM70.0 °F53.0 °F44 %29.96 inSouth (170°)4.6 mph
2:00 PM70.3 °F53.1 °F54 %29.96 inSouth (170°)4.6 mph
3:00 PM69.8 °F52.7 °F54 %29.96 inSouth (170°)8.1 mph
4:00 PM67.8 °F52.9 °F59 %29.95 inSouth (170°)6.9 mph
5:00 PM68.7 °F53.2 °F58 %29.93 inSouth (170°)5.8 mph
6:00 PM68.7 °F52.2 °F55 %29.94 inESE (120°)2.3 mph
7:00 PM66.0 °F55.2 °F68 %29.93 inSW (230°)4.6 mph
8:00 PM63.0 °F53.0 °F63 %29.93 inWSW (250°)6.9 mph
8:00 PM63.0 °F53.4 °F71 %29.93 inWSW (250°)6.9 mph
9:00 PM61.5 °F54.1 °F77 %29.94 inSSE (150°)2.3 mph
10:00 PM59.7 °F53.1 °F79 %29.96 inEast (90°)1.2 mph
11:00 PM56.8 °F52.7 °F86 %29.97 inCalm
Hourly data recorded from CXHA, located miles away from Put In Bay, Ohio







STORIES FROM OUR PARTNERS